TKSAT-1 (TUPAC KATARI)

Last updated on Sun Jun 21 2026 00:03:06 GMT+0000 (Coordinated Universal Time)

1 39481U 13075A 26171.37473705 -.00000199 00000+0 00000+0 0 9992 2 39481 0.0366 192.3780 0002607 248.3219 235.5765 1.00273277 45636
UTC large
Height (km)
Speed (km/s)
/
Latitude / Longitude
Inclination (degrees)
Orbital Period (minutes)
Azimuth
Elevation
Range (km)
Doppler Factor

Next 0 passes for location: London (51.5072 / 0.1276)

No passes found over London.
TKSAT-1 (TUPAC KATARI)